Wind_Speed
159 158 160 157 156 153 150 150 146 143 146 147 143 142 133 132 133 134 132 127 124 122 117 119 116 111 107 103 101 102 103 97 100 101 101 101 97 99 100 102 98 102 108 101
158 154 152 151 150 150 150 151 153 149 153 153 148 143 140 137 137 139 132 129 125 125 119 117 113 109 108 102 103 105 101 101 102 100 107 106 102 106 108 110 111 111 117 114
140 140 142 143 143 144 144 147 147 142 141 137 137 134 135 134 129 130 124 123 121 117 116 115 113 111 110 106 108 105 105 104 105 107 110 112 109 108 110 114 111 113 109 113
121 126 132 134 133 131 134 137 132 127 126 124 127 128 127 125 121 120 120 120 118 115 118 116 111 112 109 104 104 103 101 101 97 98 103 102 99 97 94 101 104 103 93 101
117 123 123 117 114 115 123 120 118 118 117 114 116 117 117 117 116 117 118 117 115 115 115 110 107 108 105 98 101 97 98 96 97 96 96 93 93 93 94 93 93 87 81 76
96 98 103 109 112 113 115 108 109 111 109 106 107 103 105 107 111 113 109 108 110 107 101 102 102 98 92 90 91 93 95 95 92 91 95 93 89 92 92 86 81 79 77 71
88 89 90 91 93 98 102 96 102 103 96 98 96 98 98 99 99 100 101 103 103 101 101 96 92 91 89 87 83 85 85 86 88 83 85 85 85 80 76 75 77 75 68 62
80 83 84 84 85 88 92 87 91 90 86 86 86 87 87 90 91 89 90 95 94 91 90 88 85 82 80 79 77 75 77 75 75 78 79 73 71 70 70 70 69 63 61 60
71 75 75 77 76 80 85 84 84 82 79 78 78 78 79 80 80 84 84 84 78 82 82 83 78 74 72 71 68 69 68 69 71 71 67 65 69 70 61 66 63 60 62 60
64 66 69 69 70 76 78 77 76 73 74 76 70 69 71 72 75 74 71 74 74 76 76 75 72 68 67 65 65 65 65 65 65 68 67 62 63 69 59 62 61 64 64 64
58 61 62 63 66 69 71 71 70 65 66 67 67 67 66 68 67 66 67 72 67 65 65 63 63 62 62 63 60 60 58 60 58 59 59 58 64 64 65 69 67 68 67 64
52 54 57 59 62 64 65 65 62 54 58 62 64 65 65 65 64 62 64 58 59 60 61 59 59 57 56 55 54 56 54 54 56 56 58 58 65 68 65 68 69 69 67 66
47 50 53 56 57 58 60 57 53 50 60 59 60 59 59 59 59 60 60 57 58 57 58 56 56 55 53 52 49 51 51 52 53 55 59 61 61 62 64 63 65 65 65 59
43 46 48 50 53 54 52 48 46 50 54 55 55 54 54 56 57 58 57 55 54 55 54 52 52 50 48 45 47 47 49 49 51 53 56 56 53 54 55 59 60 56 52 47
38 41 43 45 46 48 47 46 47 49 51 50 50 53 50 53 53 54 54 52 52 52 51 49 47 45 42 41 44 44 49 48 48 48 52 45 46 47 51 49 47 42 40 35
33 34 37 39 41 41 41 40 40 42 45 47 47 47 47 50 50 51 51 50 50 49 47 45 40 41 39 39 40 44 44 44 50 44 41 40 43 47 45 39 34 36 34 30
30 32 33 34 35 35 31 35 44 44 42 43 45 41 44 46 48 47 47 48 48 48 45 42 41 40 39 37 36 42 41 49 41 37 39 39 44 43 34 35 30 32 29 26
26 28 29 30 31 32 35 40 39 36 38 39 37 37 41 42 44 44 45 45 45 43 42 40 40 39 36 28 37 47 53 41 35 36 37 40 39 33 32 32 29 28 26 24
20 21 22 25 27 28 29 32 33 32 30 29 32 33 35 38 39 39 42 43 40 39 38 41 38 37 32 43 49 47 47 31 37 36 37 34 36 35 24 28 28 26 24 24
19 19 20 21 23 25 27 26 23 23 25 28 30 31 34 36 40 41 40 38 37 35 37 38 32 39 43 47 45 42 39 37 35 36 33 31 29 23 25 25 27 24 23 27
21 21 21 22 24 24 23 23 23 25 27 30 31 33 35 37 39 39 35 34 33 33 39 34 35 43 47 40 40 38 36 39 32 25 32 25 24 24 23 24 22 22 22 25
18 19 19 20 20 22 23 24 24 27 27 31 35 37 35 32 32 33 30 29 28 32 34 29 35 44 37 36 33 35 35 33 30 24 17 24 23 23 23 20 20 21 24 26
4 7 12 15 18 21 23 25 28 31 33 35 35 31 24 28 26 24 22 23 28 31 24 25 37 33 31 33 28 29 28 24 18 19 22 22 21 20 18 20 21 24 25 27
9 7 6 8 5 15 9 14 14 17 19 23 17 14 17 13 16 20 24 30 28 25 28 34 31 27 22 26 23 18 15 16 20 20 19 18 17 17 18 19 21 23 23 25
13 8 5 11 7 11 8 11 12 14 14 14 15 15 15 17 22 25 27 23 22 24 23 19 24 21 18 14 15 16 16 16 16 15 15 15 15 15 16 17 18 23 28 33
11 11 11 10 10 9 9 7 7 6 8 12 13 15 17 15 15 18 19 19 20 21 18 15 14 14 14 14 13 13 13 13 14 15 15 13 12 13 16 21 25 29 31 33
14 13 12 11 11 13 13 12 8 7 9 11 13 14 14 17 19 19 17 14 13 13 12 15 16 14 14 13 13 14 15 15 14 12 11 12 15 19 22 25 27 26 30 34
Wind_Direction
255 257 259 258 260 261 261 262 261 263 265 265 265 268 267 266 268 270 269 273 275 273 274 276 273 272 270 271 271 270 272 275 275 275 276 277 278 280 280 280 280 283 283 286
258 258 259 259 259 260 260 261 261 261 263 265 267 266 266 265 266 268 269 271 271 272 272 271 271 271 271 271 269 270 270 271 270 270 272 272 274 276 278 280 282 283 284 287
257 257 258 258 259 259 260 260 261 262 261 261 263 264 264 263 263 264 265 266 267 268 268 268 270 271 269 270 269 270 270 269 270 271 272 272 274 276 278 279 282 283 286 284
255 255 256 257 258 259 259 259 260 260 261 261 261 260 262 262 262 263 264 266 267 265 266 267 268 271 269 270 272 270 271 272 273 273 273 276 279 280 281 281 284 286 284 286
252 253 256 259 259 258 258 258 260 260 260 260 260 260 261 263 264 264 263 264 266 265 264 264 266 269 269 269 271 271 272 273 272 274 276 278 282 285 282 283 285 288 288 288
250 250 250 251 254 256 257 257 258 259 258 258 257 259 258 258 260 261 261 264 265 264 265 265 266 268 270 268 267 269 270 271 273 275 276 277 281 280 285 285 286 288 290 288
248 248 248 249 249 252 254 255 253 256 256 256 256 257 256 256 256 259 260 260 261 264 264 265 266 267 267 269 269 270 272 274 274 274 275 279 281 284 282 283 285 287 289 289
244 244 244 245 246 248 250 250 251 253 253 252 252 253 253 253 255 255 255 258 258 262 267 267 267 267 267 269 268 269 270 270 272 273 276 278 278 276 279 284 282 285 286 290
239 240 241 241 242 244 247 247 247 249 250 252 250 250 251 251 252 252 253 256 261 260 261 263 264 265 267 266 267 269 271 270 271 274 276 277 277 277 281 276 279 283 287 289
236 236 236 236 237 240 243 245 246 244 246 247 248 247 247 247 248 251 251 254 253 255 257 261 265 265 265 266 267 266 267 270 271 273 274 275 274 276 275 272 278 282 286 287
233 234 234 234 235 237 240 243 244 242 243 244 245 245 246 246 249 249 247 248 254 257 258 258 259 260 261 261 262 264 266 268 269 270 270 270 270 270 271 276 278 281 284 287
229 229 230 231 232 234 237 241 243 241 241 242 241 241 242 244 246 249 250 250 250 250 252 254 255 256 257 260 261 262 265 266 268 269 268 267 266 271 271 273 277 280 284 289
223 224 226 228 230 232 235 237 239 234 237 239 242 241 242 243 245 246 247 247 248 249 250 251 252 255 257 258 260 262 265 265 265 265 266 267 269 272 274 275 276 279 283 286
219 221 223 226 227 231 234 235 235 234 237 237 240 240 240 241 242 244 245 246 246 247 249 250 251 254 256 258 260 260 262 264 264 265 266 270 273 274 274 273 275 278 280 278
217 217 219 223 225 228 231 230 229 229 235 238 236 239 239 241 243 245 246 246 245 245 247 248 250 253 256 255 255 257 258 260 262 261 264 271 271 270 269 272 277 276 272 269
212 213 216 219 221 224 227 229 233 233 234 236 237 239 239 238 241 242 244 246 247 249 247 248 248 249 249 250 251 255 257 259 257 262 266 268 270 270 274 277 273 268 264 256
201 207 211 216 219 220 219 221 228 229 230 232 234 234 234 237 240 243 244 244 244 245 247 247 245 244 243 243 251 258 259 257 263 265 267 269 269 272 278 272 264 260 254 243
202 204 207 210 212 212 212 221 227 229 230 235 239 235 232 234 235 238 241 241 241 242 245 244 241 243 242 244 250 252 255 260 267 271 274 272 273 280 268 267 258 251 240 234
198 200 204 209 211 213 215 222 226 228 230 232 233 232 230 231 234 236 237 239 240 240 239 243 243 245 246 240 244 250 259 266 269 268 275 276 274 269 262 251 246 241 233 233
186 191 196 200 205 208 212 215 215 216 221 225 227 228 228 226 229 232 233 234 236 234 235 237 236 242 241 243 249 254 259 261 261 272 271 269 269 257 246 238 235 234 237 234
184 187 189 197 202 205 210 213 211 208 211 217 220 223 225 222 224 230 229 227 228 226 231 229 229 235 239 242 247 253 258 264 268 264 261 268 253 246 236 233 232 236 236 237
202 202 199 198 200 204 205 207 207 209 212 220 221 223 223 225 226 228 229 227 222 223 230 229 233 238 242 245 247 251 257 258 257 265 259 243 239 230 228 227 228 233 239 247
190 181 180 191 197 202 206 207 209 213 221 229 231 229 222 229 228 227 223 220 216 220 216 220 231 237 237 245 252 249 254 260 259 240 234 233 227 227 228 227 233 241 249 259
65 75 18 210 247 215 252 240 249 241 251 251 250 231 226 233 218 209 207 212 213 210 213 219 228 234 232 232 244 251 244 233 226 229 225 222 220 223 227 233 242 254 265 271
96 116 156 164 211 182 192 193 206 210 195 193 194 188 187 194 196 201 209 211 207 211 215 214 219 226 229 224 218 212 213 218 216 213 210 207 208 217 231 246 259 268 273 280
109 127 132 141 159 162 159 167 179 173 186 189 182 184 191 196 194 197 194 193 198 202 204 207 202 191 188 192 195 193 195 193 191 183 189 201 215 234 252 260 270 280 286 290
87 97 103 112 124 129 121 113 113 127 152 155 157 156 160 171 175 177 179 177 171 164 164 157 160 165 168 173 179 181 179 172 167 178 200 225 242 257 271 280 283 289 295 298
Height
10334 10343 10353 10363 10369 10371 10373 10376 10394 10403 10400 10394 10406 10424 10445 10441 10444 10442 10454 10457 10457 10453 10458 10456 10462 10467 10461 10473 10477 10470 10466 10479 10474 10471 10471 10468 10470 10464 10463 10455 10459 10453 10441 10465
10290 10302 10310 10320 10330 10334 10336 10339 10346 10365 10365 10366 10388 10393 10402 10408 10410 10415 10421 10426 10425 10426 10431 10430 10433 10435 10436 10452 10450 10445 10452 10452 10451 10451 10444 10442 10452 10448 10438 10430 10430 10431 10419 10425
10249 10260 10269 10281 10292 10297 10298 10297 10303 10325 10334 10348 10352 10361 10364 10366 10378 10380 10386 10393 10396 10402 10398 10403 10404 10410 10412 10420 10417 10429 10423 10426 10426 10427 10419 10418 10426 10422 10416 10409 10410 10401 10409 10387
10211 10223 10233 10244 10257 10260 10257 10257 10276 10293 10300 10318 10320 10318 10325 10332 10344 10353 10356 10360 10371 10371 10370 10373 10381 10382 10384 10391 10395 10399 10396 10403 10400 10403 10402 10394 10401 10403 10398 10389 10382 10376 10392 10368
10179 10193 10197 10204 10218 10224 10214 10231 10249 10259 10266 10281 10284 10290 10300 10309 10317 10320 10325 10327 10336 10336 10343 10350 10351 10355 10361 10368 10372 10370 10373 10374 10376 10381 10379 10379 10382 10379 10372 10367 10360 10358 10358 10357
10150 10161 10172 10183 10189 10190 10187 10210 10224 10222 10239 10247 10252 10270 10277 10282 10281 10284 10293 10298 10302 10308 10321 10320 10325 10333 10342 10345 10345 10348 10348 10352 10357 10358 10354 10358 10365 10354 10352 10346 10341 10337 10337 10334
10119 10130 10141 10152 10162 10165 10170 10186 10187 10189 10213 10218 10232 10237 10244 10254 10256 10263 10270 10270 10274 10284 10289 10300 10306 10310 10315 10321 10327 10327 10331 10331 10333 10337 10334 10341 10339 10336 10330 10331 10324 10320 10321 10316
10095 10103 10114 10126 10136 10142 10146 10161 10162 10170 10186 10194 10203 10211 10224 10227 10232 10241 10246 10247 10256 10266 10272 10277 10283 10289 10295 10302 10305 10307 10309 10311 10312 10315 10317 10322 10320 10315 10316 10312 10304 10307 10306 10303
10074 10082 10094 10104 10115 10121 10123 10134 10142 10152 10164 10174 10181 10190 10198 10208 10215 10214 10225 10233 10246 10244 10248 10252 10263 10273 10277 10281 10285 10291 10291 10291 10293 10299 10299 10303 10299 10292 10303 10292 10294 10295 10290 10289
10054 10063 10072 10084 10094 10098 10104 10115 10123 10137 10147 10149 10166 10174 10178 10186 10189 10199 10211 10214 10223 10227 10231 10239 10246 10255 10257 10264 10266 10274 10272 10274 10278 10278 10283 10286 10281 10274 10285 10280 10283 10278 10277 10274
10038 10047 10058 10067 10075 10082 10088 10099 10107 10120 10129 10139 10147 10155 10163 10167 10176 10184 10192 10193 10206 10214 10219 10225 10228 10235 10240 10245 10252 10253 10258 10258 10261 10263 10265 10270 10264 10265 10266 10264 10268 10265 10262 10261
10025 10034 10043 10052 10060 10067 10074 10084 10094 10109 10114 10122 10129 10137 10146 10152 10160 10169 10172 10186 10192 10196 10200 10209 10212 10220 10225 10230 10236 10236 10242 10244 10245 10249 10248 10253 10248 10248 10253 10251 10250 10249 10247 10246
10012 10021 10030 10039 10048 10056 10065 10074 10083 10096 10098 10107 10114 10124 10132 10140 10148 10154 10159 10169 10174 10182 10186 10192 10198 10206 10212 10218 10224 10225 10229 10230 10234 10234 10231 10232 10236 10238 10235 10236 10234 10235 10232 10232
10004 10011 10020 10028 10037 10045 10055 10064 10073 10080 10086 10095 10104 10112 10120 10127 10133 10139 10147 10155 10162 10166 10174 10181 10187 10194 10200 10207 10210 10214 10213 10215 10217 10218 10217 10218 10222 10221 10222 10220 10220 10221 10220 10218
9996 10004 10012 10020 10029 10036 10045 10053 10061 10070 10077 10086 10093 10098 10108 10115 10121 10126 10134 10141 10148 10154 10161 10167 10175 10181 10189 10194 10196 10199 10197 10201 10203 10204 10203 10210 10208 10209 10207 10209 10208 10207 10207 10208
9992 9999 10006 10014 10021 10029 10037 10044 10052 10060 10067 10074 10081 10089 10097 10102 10108 10115 10121 10128 10135 10141 10148 10156 10166 10169 10176 10181 10184 10183 10185 10187 10184 10193 10196 10197 10196 10193 10195 10197 10197 10195 10197 10198
9988 9994 10001 10008 10016 10025 10034 10043 10042 10049 10057 10065 10071 10080 10086 10091 10097 10105 10111 10117 10122 10127 10136 10146 10152 10157 10162 10169 10173 10167 10169 10165 10176 10182 10183 10185 10182 10183 10185 10184 10187 10186 10188 10190
9985 9992 9998 10006 10013 10020 10026 10029 10037 10046 10052 10056 10064 10070 10076 10082 10087 10093 10099 10105 10111 10120 10127 10134 10139 10143 10148 10160 10156 10151 10148 10161 10170 10171 10173 10173 10172 10172 10174 10174 10176 10177 10179 10183
9984 9991 9998 10002 10008 10015 10023 10028 10032 10039 10046 10052 10057 10062 10068 10073 10079 10085 10089 10094 10103 10112 10120 10122 10127 10133 10142 10138 10135 10138 10143 10158 10158 10160 10161 10161 10161 10162 10165 10166 10167 10170 10174 10178
9985 9991 9995 10001 10006 10012 10018 10023 10029 10035 10041 10046 10050 10054 10059 10065 10069 10074 10080 10087 10094 10103 10108 10111 10122 10124 10123 10123 10129 10135 10138 10143 10148 10150 10152 10152 10153 10155 10156 10159 10162 10166 10169 10173
9985 9989 9994 9999 10005 10010 10016 10021 10026 10031 10035 10037 10042 10045 10049 10054 10058 10064 10072 10079 10087 10094 10096 10105 10111 10109 10108 10119 10123 10127 10132 10133 10138 10142 10142 10145 10146 10148 10151 10154 10158 10162 10166 10169
9989 9994 9999 10002 10007 10011 10016 10020 10024 10026 10030 10031 10032 10034 10042 10050 10056 10061 10068 10074 10080 10086 10087 10098 10100 10095 10107 10112 10118 10120 10122 10125 10129 10133 10136 10138 10140 10143 10146 10151 10155 10158 10162 10164
9995 9999 10003 10006 10009 10012 10013 10016 10020 10022 10023 10025 10028 10035 10044 10045 10052 10059 10064 10071 10073 10076 10086 10090 10087 10095 10102 10104 10110 10114 10116 10120 10124 10126 10128 10132 10136 10140 10144 10148 10152 10155 10157 10158
9996 10000 10004 10007 10010 10012 10016 10018 10022 10025 10026 10029 10035 10039 10042 10046 10052 10056 10059 10062 10068 10074 10078 10079 10084 10089 10095 10100 10103 10108 10112 10115 10118 10121 10125 10130 10134 10138 10142 10146 10149 10151 10152 10152
9996 10000 10003 10006 10009 10012 10014 10017 10021 10025 10027 10029 10032 10036 10040 10043 10047 10051 10056 10061 10066 10068 10072 10078 10081 10088 10093 10097 10101 10104 10108 10112 10116 10121 10125 10129 10134 10137 10140 10143 10145 10146 10145 10144
10001 10003 10005 10009 10012 10014 10016 10020 10023 10025 10025 10028 10031 10034 10039 10043 10047 10052 10056 10059 10062 10066 10072 10078 10082 10086 10091 10095 10100 10105 10109 10113 10117 10121 10125 10129 10132 10135 10137 10138 10139 10138 10137 10134
10009 10011 10013 10014 10016 10017 10017 10020 10024 10027 10029 10031 10034 10037 10042 10046 10049 10051 10056 10061 10066 10070 10075 10078 10083 10088 10092 10097 10102 10106 10110 10114 10118 10121 10125 10127 10130 10131 10132 10132 10131 10130 10127 10125